OV1-14 R/B, 3177

Orbit data source: Space-Track

OV1-14 R/B, 3177 is space debris originally from a launch on Sat, 06 Apr 1968 UTC launched from the Air Force Western Test Range (AFWTR). Debris objects in space refer to the collection of defunct objects orbiting the Earth. Examples of debris include non-operational satellites, rocket bodies, and fragments generated from explosions, collisions, or faulty payload assembly.

Loading next visibility...
Identifier
3177, 1968-026C
Orbit
Active
Country
Flag of USUS
Related business
Manufacturer
UTC
Mission
Spacecraft
Bus & Motor
FW4, Unknown motor
Mass
125 kg wet, 125 kg dry
Launch date (UTC)
1968-04-06 (58 years ago)
Launch vehicle
Unknown
Launch site
Air Force Western Test Range (AFWTR)
Object type
Payload
Rocket body
Debris
Shape & HBR
Unknown
Radar Cross Section
Medium (>0.1 m² and <1 m²)

Expand to show TLE details & history
Last TLE update: 7 hours ago

TLE from 7 hours ago
0 OV1-14 R/B
1  3177U 68026C   26036.82274137  .00000930  00000-0  13189-2 0  9997
2  3177  99.9940 330.4502 4017171  16.9022 159.7917  6.98102946468033
Epoch: 2026-02-05T19:44Z
TLE epoch observation values (Epoch: 2026-02-05T19:44:44.854Z)
Latitude
-7.40051°
Longitude
76.98536°
Altitude
9,688.99 km
Speed
3.893 km/s
True Right ascension
09h 56m 34s
True Declination
-7° 22' 52"
Sunlit
Object was in daylight at epoch
Visualization orbit readout
Latitude
Unknown
Longitude
Unknown
Altitude
Unknown
Speed
Unknown
Apparent Right ascension
Unknown
Apparent Declination
Unknown
Sunlit
N/A
Visualization observer readout
Local Sidereal Time
04:21:33
Azimuth
Unknown
Elevation
Unknown
Doppler factor
Unknown
Orbital elements
Apogee altitude
9,828.695 km
Perigee altitude
539.286 km
Semi-major axis
11,562.128 km
Eccentricity
0.40172
Inclination
99.994°
RAAN
330.4502°
Arg. of periapsis
16.9022°
True anomaly
170.5238°
Mean anomaly
159.7917°
Eccentric anomaly
165.53932°
Mean motion
1.74577 °/min
Orbital period
206.21 mins
BSTAR
0.0013189
Loading maneuver chart data...
Computing Atmospheric mass density...
Loading historical data...
Loading historical data...
Loading historical data...
Loading historical data...
Loading historical data...
Loading historical data...
Loading historical data...
Other satellites on launch #26 in the year 1968 (1968-04-06 UTC)

Documentation

Showing up to 5 results
|